This is the latest recevied weather packets stored in our database for station/object IR9AK-10. If no packets are shown the sender has not sent any weather packets the latest 10 day(s).
| Time | Temp. | Humidity | Pressure | Rain* | Wind** | Luminosity | Snow |
|---|---|---|---|---|---|---|---|
| 1777865202 | 15.56° C | 44% | 1064.7 hPa | - | - | - | - |
| 1777864604 | 15.56° C | 44% | 1064.8 hPa | - | - | - | - |
| 1777864005 | 15.56° C | 44% | 1064.7 hPa | - | - | - | - |
| 1777863417 | 15.56° C | 49% | 1064.8 hPa | - | - | - | - |
| 1777863406 | 15.56° C | 45% | 1064.8 hPa | - | - | - | - |
| 1777862806 | 15.56° C | 44% | 1064.8 hPa | - | - | - | - |
| 1777862207 | 16.11° C | 43% | 1064.8 hPa | - | - | - | - |
| 1777861609 | 16.11° C | 44% | 1065 hPa | - | - | - | - |
| 1777861010 | 15.56° C | 43% | 1064.9 hPa | - | - | - | - |
| 1777860411 | 15.56° C | 44% | 1064.9 hPa | - | - | - | - |
| 1777859812 | 15.56° C | 45% | 1064.9 hPa | - | - | - | - |
| 1777859214 | 15.56° C | 45% | 1064.8 hPa | - | - | - | - |
| 1777858615 | 15.56° C | 46% | 1064.8 hPa | - | - | - | - |
| 1777858015 | 16.11° C | 44% | 1064.7 hPa | - | - | - | - |
| 1777857417 | 15.56° C | 45% | 1064.6 hPa | - | - | - | - |
| 1777856818 | 16.11° C | 44% | 1064.6 hPa | - | - | - | - |
| 1777856219 | 16.11° C | 45% | 1064.7 hPa | - | - | - | - |
| 1777855619 | 16.11° C | 44% | 1064.8 hPa | - | - | - | - |
| 1777855021 | 15.56° C | 45% | 1064.9 hPa | - | - | - | - |
| 1777854422 | 15.56° C | 46% | 1064.9 hPa | - | - | - | - |
| 1777853824 | 15.56° C | 47% | 1065 hPa | - | - | - | - |
| 1777853226 | 15.56° C | 47% | 1065 hPa | - | - | - | - |
| 1777852627 | 15.56° C | 48% | 1065.1 hPa | - | - | - | - |
| 1777852028 | 15.56° C | 46% | 1065.1 hPa | - | - | - | - |
| 1777851429 | 15.56° C | 48% | 1065.2 hPa | - | - | - | - |
* Rain since midnight (hover to see other rain measurements)
** Current wind speed in m/s (hover to see current wind gust speed)